TEVEL-7 (51062 NORAD) Tracking and Keplerian Element Data

This shows tracking and keplerian element data for the satellite.

Feedback or suggestion? Click here.




ElementValue
Catalog51062
NameTEVEL-7
Epoch Orbit4716
Epoch Day325.26218186
Epoch Year2022
RAAN29.7143
Inclination97.466
Eccentricity0.0007975
Argument of Perigee233.5439
Mean Anonmoly197.4984
Mean Motion15.16836057
Decay Rate8.041E-05
L11 51062U 22002CG 22325.26218186 .00008041 00000+0 41178-3 0 9994
L22 51062 97.4660 29.7143 0007975 233.5439 197.4984 15.16836057 47163



Live tracking and technical data element details for TEVEL-7 (NORAD 51062). TEVEL-7 can be tracked NOW for your location showing map with azimuth and elevation plus other details from your city location.







IsCatalogInMostPopularTable: catalog: 51062, numindb: 37
Update: records affected: 1



GetName: 51062 TEVEL-7

Hit Count: updated at: Fri, 02 Dec 2022 12:54:26 GMT